Home   Weather   Siegburg   Past weeks

Flag for Germany Past Weather in Siegburg, North Rhine-Westphalia, Germany — Yesterday and Last 2 Weeks

Now
58 °F

Fog.


Feels Like: 57 °F
Forecast: 59 / 71 °F
Wind: 6 mph from Northwest

Location: Aachen-Orsbach

Current Time: Jul 26, 2017 at 6:51:37 am

Latest Report: Jul 26, 2017 at 6:00 am


Visibility: 2 mi

Pressure: 29.84 "Hg

Humidity: 99%

Dew Point: 57 °F

Location of SiegburgLocation

Past Weather in Siegburg — Graph

°F

Siegburg Temperature Yesterday

Maximum temperature yesterday: 63 °F (at 4:00 pm)
Minimum temperature yesterday: 55 °F (at 6:00 am)
Average temperature yesterday: 58 °F

High & Low Weather Summary for the Past Weeks

 TemperatureHumidityPressure
High87 °F (Jul 19, 12:00 pm)99% (Jul 23, 12:00 am)30.24 "Hg (Jul 23, 12:00 am)
Low48 °F (Jul 13, 6:00 am)37% (Jul 21, 6:00 pm)29.73 "Hg (Jul 12, 12:00 pm)
Average63 °F75%29.98 "Hg
* Reported Jul 11 4:00 am — Jul 26 4:00 am, Siegburg. Weather by CustomWeather, © 2017

Note: Actual official high and low records may vary slightly from our data, if they occured in-between our weather recording intervals... More about our weather records

Advertising

Siegburg Weather History for the Previous 24 Hours

Scroll right to see more
 ConditionsComfort  
Time TempWeatherWind HumidityBarometerVisibility
4:00 am
Wed, Jul 26
58 °FFog.6 mph99%29.84 "Hg2 mi
3:00 am57 °FFog.6 mph99%29.84 "Hg1 mi
2:00 amN/APassing clouds.102 mphN/AN/A4 mi
1:00 am57 °FLow clouds.6 mph99%29.83 "Hg2 mi
12:00 am57 °FLow clouds.6 mph98%29.83 "Hg3 mi
10:00 pm
Tue, Jul 25
57 °FRain. Low clouds.8 mph98%29.83 "Hg1 mi
9:00 pm57 °FLight rain. Low clouds.8 mph98%29.83 "Hg2 mi
7:00 pm59 °FLight rain. Overcast.7 mph90%29.81 "Hg9 mi
6:00 pm62 °FOvercast.8 mph76%29.82 "Hg9 mi
4:00 pm63 °FOvercast.7 mph79%29.81 "Hg12 mi
3:00 pm62 °FOvercast.6 mph86%29.83 "Hg10 mi
1:00 pm59 °FOvercast.8 mph88%29.84 "Hg11 mi
12:00 pm62 °FOvercast.7 mph81%29.84 "Hg17 mi
10:00 am58 °FFog.6 mph94%29.85 "Hg3 mi
9:00 am57 °FLow clouds.6 mph97%29.86 "Hg2 mi
8:00 amN/APassing clouds.6 mphN/AN/A14 mi
7:00 am55 °FLight rain. Low clouds.5 mph99%29.86 "Hg1 mi
6:00 am55 °FLight rain. Low clouds.5 mph99%29.87 "Hg1 mi
Weather by CustomWeather, © 2017

See weather overviewHow to use our weather pages